Location: Fort Worth, Tx
(32.7431°N, 97.3695°W)
Time: 05:27:21
(UTC-05:00)

Altair - Pass Details

Date: 10 October 2023
Orbit: 1501 x 1682 km, 47.2° (Epoch: 06 December)

Event Time Altitude Azimuth Distance (km) Brightness Sun altitude
Rises 06:46:57 0° 304° (NW) 4,826 - -22.4°
Reaches altitude 10° 06:50:14 10° 310° (NW) 3,863 - -21.7°
Exits shadow 06:51:00 13° 312° (NW) 3,643 9.1 -21.5°
Maximum altitude 06:59:48 49° 24° (NNE) 2,052 8.3 -19.7°
Drops below altitude 10° 07:09:32 10° 98° (E) 3,940 10.9 -17.7°
Sets 07:12:53 0° 103° (ESE) 4,928 11.6 -17.0°
